Meteo Giornale » Osservazioni meteo Italia » Napoli-Capodichino

ore: 13:50 - Osservazioni Meteo Napoli-Capodichino
Lat. 40° 51' N Lon. 14° 18' E Alt. 88 metri s.l.m.

sereno Europe/Rome

30 °C

Sereno

Temp. 24 Ore

23 °C

31 °C

Sud/Sud-Ovest

14.8 Km/h

Dew point 20 °C

Umidità 55 %

Visibilità  10 Km

Il sole sorge alle ore 06:17

Il sole tramonta alle ore 19:54

Data e Ora Cielo e Fenomeni T °C DP °C Um. % Pres. hPa Vis. km Vento km/h
Oggi h: 13:50 sereno Sereno 30 20 55 1017 10 S/SO 14.8
Oggi h: 13:20 sereno Sereno 30 18 48 1017 10 S/SO 14.8
Oggi h: 12:50 sereno Sereno 31 19 48 1018 10 S/SO 11.1
Oggi h: 12:20 sereno Sereno 31 19 48 1018 10 N 11.1
Oggi h: 11:50 sereno Sereno 29 20 58 1018 10 S/SO 13
Oggi h: 11:20 sereno Sereno 29 18 51 1018 10 S/SO 13
Oggi h: 10:50 sereno Sereno 29 19 54 1018 10 N 9.3
Oggi h: 10:20 sereno Sereno 29 20 58 1018 10 S/SO 7.4
Oggi h: 09:50 sereno Sereno 28 20 61 1018 10 SO 7.4
Oggi h: 09:20 poco_nuvoloso Poco Nuvoloso 27 21 69 1018 8 N 5.5
Oggi h: 08:50 poco_nuvoloso Poco Nuvoloso 27 20 65 1018 8 N 3.7
Oggi h: 08:20 poco_nuvoloso Poco Nuvoloso 26 20 69 1018 8 N 3.7
Oggi h: 07:50 poco_nuvoloso Poco Nuvoloso 24 19 73 1018 8 N 3.7
Oggi h: 07:20 poco_nuvoloso Poco Nuvoloso 24 19 73 1017 8 N 5.5
Oggi h: 06:50 sereno Sereno 23 18 73 1017 10 N 3.7
Oggi h: 06:20 sereno Sereno 23 18 73 1017 10 N 3.7
Oggi h: 05:50 sereno Sereno 23 19 78 1017 10 N 5.5
Oggi h: 05:20 sereno Sereno 23 19 78 1017 10 N 3.7
Oggi h: 04:50 sereno Sereno 23 19 78 1017 10 N 1.8
Oggi h: 04:20 sereno Sereno 23 19 78 1017 10 N 1.8
Oggi h: 03:50 sereno Sereno 23 19 78 1017 10 N 0
Oggi h: 03:20 sereno Sereno 24 20 78 1017 10 N 1.8
Oggi h: 02:50 sereno Sereno 24 20 78 1017 10 N 3.7
Oggi h: 02:20 sereno Sereno 24 19 73 1017 10 N 1.8
Oggi h: 01:50 sereno Sereno 24 19 73 1017 10 N 1.8
Oggi h: 01:20 sereno Sereno 25 19 69 1017 10 N 1.8
Oggi h: 00:50 sereno Sereno 25 19 69 1017 10 N 3.7
Oggi h: 00:20 sereno Sereno 25 19 69 1017 10 N 5.5
Ieri h: 23:50 sereno Sereno 26 23 83 1017 10 N 3.7
Ieri h: 23:20 sereno Sereno 26 23 83 1017 10 N 1.8
Ieri h: 22:50 sereno Sereno 26 23 83 1017 10 N 3.7
Ieri h: 22:20 sereno Sereno 26 23 83 1017 10 N 3.7
Ieri h: 21:50 sereno Sereno 26 23 83 1017 10 N 1.8
Ieri h: 21:20 sereno Sereno 26 23 83 1017 10 N 3.7
Ieri h: 20:50 sereno Sereno 27 23 78 1017 10 N 3.7
Ieri h: 20:20 sereno Sereno 27 22 74 1017 10 N 5.5
Ieri h: 19:50 sereno Sereno 28 22 69 1017 10 N 5.5
Ieri h: 19:20 sereno Sereno 28 22 69 1017 10 S 7.4
Ieri h: 18:50 sereno Sereno 29 21 62 1017 10 S 7.4
Ieri h: 18:20 sereno Sereno 30 21 58 1017 10 S 9.3
Ieri h: 17:50 sereno Sereno 30 20 55 1017 10 SO 11.1
Ieri h: 17:20 sereno Sereno 31 19 48 1017 10 S/SO 13
Ieri h: 16:50 sereno Sereno 31 20 52 1017 10 SO 14.8
Ieri h: 16:20 sereno Sereno 31 19 48 1017 10 S/SO 16.7
Ieri h: 15:50 sereno Sereno 31 18 45 1017 10 S/SO 18.5
Ieri h: 15:20 sereno Sereno 31 19 48 1017 10 S/SO 16.7
Ieri h: 14:50 sereno Sereno 31 19 48 1017 10 S/SO 16.7